Terminal Aerodrome Forecast
Issued by NWS

Home | Current Version | Previous Version | Text Only | Print | Product List | Glossary On
Versions: 1 2 3 4 5 6 7 8 9 10 11 12 13 14 15 16 17 18 19 20 21 22 23 24 25 26 27 28 29 30 31 32 33 34 35 36 37 38 39 40 41 42 43 44 45 46 47
000
FTAK31 PANC 011135
TAFAVD
TAF
PAVD 011135Z 0112/0212 08004KT P6SM SCT045
      TEMPO 0112/0116 OVC045
     FM012200 26009KT P6SM SCT050 BKN100
     FM020500 08005KT P6SM SCT030 OVC045
      AMD LTD TO CLD VIS AND WIND=

USA.gov is the U.S. government's official web portal to all federal, state and local government web resources and services.